This is the latest recevied weather packets stored in our database for station/object LX0WX-13. If no packets are shown the sender has not sent any weather packets the latest 10 day(s).
| Time | Temp. | Humidity | Pressure | Rain* | Wind** | Luminosity | Snow |
|---|---|---|---|---|---|---|---|
| 1777870257 | 9.44° C | 93% | 1009.2 hPa | 0 mm | - | - | - |
| 1777869957 | 8.89° C | 96% | 1009.2 hPa | 0 mm | - | - | - |
| 1777869657 | 7.78° C | 96% | 1009.2 hPa | 0 mm | - | - | - |
| 1777869357 | 7.22° C | 96% | 1009.3 hPa | 0 mm | - | - | - |
| 1777869057 | 7.22° C | 93% | 1009.3 hPa | 0 mm | - | - | - |
| 1777868757 | 7.22° C | 92% | 1009.2 hPa | 0 mm | - | - | - |
| 1777868457 | 6.67° C | 92% | 1009.2 hPa | 0 mm | - | - | - |
| 1777868157 | 6.67° C | 92% | 1009.3 hPa | 0 mm | - | - | - |
| 1777867857 | 6.67° C | 92% | 1009.5 hPa | 0 mm | - | - | - |
| 1777867557 | 6.67° C | 92% | 1009.4 hPa | 0 mm | - | - | - |
| 1777867257 | 6.67° C | 92% | 1009.4 hPa | 0 mm | - | - | - |
| 1777866957 | 7.22° C | 92% | 1009.2 hPa | 0 mm | - | - | - |
| 1777866657 | 7.22° C | 92% | 1009.2 hPa | 0 mm | - | - | - |
| 1777866357 | 7.22° C | 92% | 1009.2 hPa | 0 mm | - | - | - |
| 1777866057 | 6.67° C | 92% | 1009.2 hPa | 0 mm | - | - | - |
| 1777865757 | 7.22° C | 92% | 1009.2 hPa | 0 mm | - | - | - |
| 1777865457 | 6.67° C | 92% | 1009.2 hPa | 0 mm | - | - | - |
| 1777865157 | 6.67° C | 92% | 1009.2 hPa | 0 mm | - | - | - |
| 1777864857 | 6.67° C | 92% | 1009.3 hPa | 0 mm | - | - | - |
| 1777864557 | 6.67° C | 92% | 1009.2 hPa | 0 mm | - | - | - |
| 1777864257 | 6.67° C | 92% | 1009.3 hPa | 0 mm | - | - | - |
| 1777863957 | 7.22° C | 92% | 1009.2 hPa | 0 mm | - | - | - |
| 1777863657 | 7.22° C | 92% | 1009.3 hPa | 0 mm | - | - | - |
| 1777863357 | 7.22° C | 92% | 1009.4 hPa | 0 mm | - | - | - |
| 1777863057 | 7.22° C | 92% | 1009.3 hPa | 0 mm | - | - | - |
* Rain latest hour (hover to see other rain measurements)
** Current wind speed in m/s (hover to see current wind gust speed)